Tracking 25701 objects as of 3-Jul-2022
HD Live streaming from Space Station
objects crossing your sky now

STARLINK-3583

Track STARLINK-3583 now!
10-day predictions
STARLINK-3583 is classified as:


NORAD ID: 51876
Int'l Code: 2022-022AA
Perigee: 545.6 km
Apogee: 548.0 km
Inclination: 53.2 °
Period: 95.4 minutes
Semi major axis: 6917 km
RCS: Unknown
Launch date: March 3, 2022
Source: United States (US)
Launch site: AIR FORCE EASTERN TEST RANGE (AFETR)
aabbcc
Your satellite tracking list
Your tracking list is empty




NASA's NSSDC Master Catalog

Two Line Element Set (TLE):
1 51876U 22022AA  22184.58334491 -.00051517  00000-0 -32397-2 0  9996
2 51876  53.2161 287.5258 0001689  42.2479 214.4639 15.08866525 20047
Source of the keplerian elements: AFSPC